Location: Vlissingen
(51.4500°N, 3.5830°E)
Time: 00:38:19
(UTC+02:00)

Daily predictions for brighter satellites

Satellite Brightness Start Highest point End
(mag) Time Altitude Azimuth Time Altitude Azimuth Time Altitude Azimuth
ATLAS CENTAUR R/B 4.4 00:01:54 10° NW 00:04:22 16° NNW 00:06:56 10° NNE
IGS 5A 4.5 00:07:08 33° SW 00:08:05 38° W 00:12:00 10° NNW
Cosmos 1605 Rocket 4.1 00:05:22 31° SSW 00:08:40 79° W 00:15:07 10° N
Meteor 1-29 3.9 00:06:45 10° N 00:10:00 42° WNW 00:10:28 40° W
Cosmos 1633 4.2 00:08:26 10° NNW 00:11:26 25° W 00:11:58 24° WSW
Lacrosse 4 Rocket 4.2 00:09:52 10° N 00:12:20 15° NNE 00:14:50 10° ENE
CZ-2C R/B 3.0 00:11:22 51° SSW 00:12:26 67° WSW 00:17:19 10° NNW
Cosmos 1782 2.8 00:13:01 68° WSW 00:13:19 72° WNW 00:17:20 10° N
Lacrosse 5 2.8 00:12:35 10° WNW 00:17:05 32° SW 00:17:13 32° SW
BREEZE M DEB (TANK) 2.9 00:06:37 10° W 00:17:11 74° S 00:18:02 57° SE
Nimbus 7 Rocket 4.4 00:11:51 10° NNE 00:17:47 84° WNW 00:20:19 36° SSW
Cosmos 1486 Rocket 3.9 00:12:42 10° NNW 00:18:00 81° ENE 00:19:05 57° SE
Meteor 1-4 Rocket 4.4 00:16:16 10° NW 00:18:57 21° W 00:19:16 21° W
CZ-4C R/B 2.5 00:17:14 10° SW 00:22:38 71° NW 00:29:01 10° NE
Cosmos 1900 4.2 00:20:01 10° NW 00:24:56 79° NE 00:25:40 63° ESE
H-2A R/B 4.5 00:23:53 10° WSW 00:25:51 12° W 00:27:49 10° WNW
Cosmos 1536 3.2 00:22:01 10° N 00:25:42 53° ENE 00:25:42 53° ENE
Sich 1 Rocket 4.0 00:21:39 10° NNW 00:26:08 54° W 00:26:50 48° SW
Cosmos 1602 4.2 00:24:22 10° NNW 00:28:12 54° W 00:28:12 54° W
Cosmos 1459 Rocket 4.0 00:26:53 50° SSE 00:28:19 64° E 00:34:21 10° NNE
Cosmos 1271 Rocket 2.8 00:24:52 10° N 00:28:33 73° NNE 00:28:33 73° NNE
Cosmos 389 Rocket 3.7 00:26:40 10° NNW 00:29:28 36° WNW 00:29:28 36° WNW
Okean 1-7 2.8 00:30:34 87° E 00:30:34 87° E 00:34:52 10° N
Cosmos 1503 Rocket 4.2 00:26:14 10° NNW 00:31:26 60° ENE 00:32:25 51° ESE
Meteor 2-6 Rocket 4.3 00:30:05 46° SSW 00:31:56 84° WNW 00:37:55 10° NNE
Cosmos 1110 Rocket 4.0 00:30:59 50° SSW 00:32:25 86° WNW 00:37:47 10° NNE
Cosmos 1782 Rocket 3.9 00:28:12 10° NNW 00:32:37 56° W 00:33:02 53° WSW
Cosmos 1943 Rocket 3.0 00:29:18 10° NW 00:34:21 37° WSW 00:35:29 33° SW
Tsikada Rocket 4.4 00:30:21 10° N 00:36:26 51° ENE 00:38:08 41° ESE
Cosmos 1656 Rocket 3.6 00:31:08 10° NNW 00:36:51 76° WSW 00:37:54 59° S
Okean 2 Rocket 3.0 00:33:04 10° NNW 00:37:31 80° W 00:37:36 79° WSW
DELTA 2 DEB (DPAF) 4.2 00:39:04 62° E 00:39:16 63° ENE 00:43:43 10° N
Meteor 1-10 Rocket 4.4 00:37:34 43° SSW 00:39:36 74° WNW 00:45:35 10° N
SeaSat 1 3.1 00:39:55 38° E 00:41:14 47° NE 00:45:59 10° NNW
CZ-4B R/B 4.3 00:41:36 10° NNE 00:45:33 34° E 00:45:33 34° E
Gblst 52 Del rocket 3.9 00:41:01 10° WSW 00:46:28 73° SSE 00:52:12 10° ENE
COBE Rocket 3.9 00:52:02 10° NNE 00:56:42 60° E 00:56:42 60° E
Cosmos 2151 Rocket 3.6 00:56:44 10° NNW 01:01:12 81° WNW 01:01:12 81° WNW
Cosmos 1812 3.7 01:06:31 42° NE 01:06:31 42° NE 01:09:20 10° NNE
H-2A R/B 2.1 01:06:42 87° NNE 01:06:42 87° NNE 01:11:12 10° NNW
Cosmos 1354 Rocket 3.8 01:01:35 10° NNW 01:06:53 78° WSW 01:07:16 73° SSW
USA 267 3.1 01:00:18 10° ENE 01:06:53 82° SSE 01:11:39 20° SW
CZ-4 R/B 3.8 01:02:50 10° NNE 01:07:44 83° WNW 01:08:08 75° SW
Cosmos 2221 Rocket 4.2 01:10:44 49° W 01:11:08 50° WNW 01:15:36 10° N
Cosmos 2100 Rocket 4.3 01:09:41 43° SW 01:11:45 64° WNW 01:18:08 10° N
Cosmos 1743 4.3 01:08:41 10° N 01:11:48 27° ENE 01:11:48 27° ENE
Cosmos 1943 4.1 01:11:29 21° WSW 01:15:00 45° NW 01:20:29 10° NNE
Cosmos 1802 Rocket 4.0 01:13:53 52° SSW 01:15:27 74° WNW 01:21:44 10° N
Cosmos 1992 Rocket 4.5 01:15:46 45° E 01:15:46 45° E 01:20:30 10° NE
CZ-4C R/B 3.9 01:16:26 53° NW 01:16:26 53° NW 01:19:43 10° NNW
Cosmos 2369 Rocket 4.3 01:12:58 10° WNW 01:15:51 14° W 01:17:01 13° WSW
Cosmos 1980 Rocket 4.3 01:12:19 10° NNW 01:16:41 22° NE 01:21:02 10° E
Cosmos 1864 Rocket 4.4 01:15:42 58° SSE 01:16:57 76° E 01:23:13 10° NNE
deb Chang Zheng 4 4.4 01:13:57 10° NNE 01:17:22 40° ENE 01:17:22 40° ENE
ADEOS Rocket 3.4 01:11:30 10° NNE 01:18:12 50° E 01:19:21 45° SE
Cosmos 1697 Rocket 4.2 01:13:12 10° NNW 01:18:14 31° NE 01:21:56 16° E
CZ-2C R/B 3.4 01:13:42 10° N 01:18:50 47° WNW 01:20:37 35° WSW
Cosmos 2061 Rocket 4.2 01:17:56 48° SW 01:19:46 71° WNW 01:26:15 10° N
Cosmos 2233 Rocket 4.1 01:22:20 50° SE 01:23:20 56° E 01:29:20 10° NNE
Terra 4.3 01:22:20 10° W 01:23:40 11° W 01:25:05 10° WNW
Cosmos 1302 Rocket 4.2 01:22:51 54° WSW 01:23:48 65° WNW 01:29:00 10° NNE
SL-08 R/B 4.5 01:22:30 56° SSW 01:24:00 87° W 01:30:29 10° N
COSMOS 2406 3.5 01:28:12 48° ESE 01:28:15 48° ESE 01:33:43 10° NE
ALOS 2 3.1 01:31:06 50° WNW 01:31:06 50° WNW 01:35:00 10° NNW
Cosmos 1656 4.4 01:27:31 10° NNW 01:33:05 49° NE 01:35:14 33° ESE
Meteor 1-27 Rocket 4.5 01:33:12 36° WSW 01:35:00 47° WNW 01:40:35 10° N
ATLAS 5 CENTAUR R/B 4.4 01:32:44 10° W 01:35:44 14° WSW 01:35:44 14° WSW
Mayak -1.0 01:31:40 10° NNE 01:35:28 70° NNW 01:35:28 70° NNW
Cosmos 2082 Rocket 4.2 01:36:33 14° E 01:36:51 14° E 01:39:36 10° ENE
CZ-4B R/B 4.0 01:38:29 15° ENE 01:38:51 15° ENE 01:40:59 10° NNE
Okean 1 4.2 01:41:06 44° NE 01:41:06 44° NE 01:44:12 10° NNE
Cosmos 968 Rocket 3.4 01:37:48 10° NNW 01:43:03 73° WSW 01:43:11 73° SW
USA 234 3.7 01:43:50 40° SW 01:43:50 40° SW 01:49:48 10° WNW
Meteor 1-18 Rocket 4.1 01:45:53 64° SE 01:46:30 71° E 01:52:13 10° NNE
Cosmos 909 Rocket 4.2 01:41:22 10° NW 01:47:43 70° NE 01:50:36 34° ESE
Cosmos 1725 Rocket 4.1 01:47:49 52° SW 01:49:14 68° WNW 01:55:25 10° N
Cosmos 1975 3.3 01:47:41 10° N 01:51:08 61° NNW 01:51:08 61° NNW
Lacrosse 4 Rocket 2.3 01:47:48 10° NNW 01:52:06 47° NE 01:52:49 43° ENE
Okean 1 Rocket 3.4 01:48:35 10° NNW 01:52:35 57° WNW 01:52:35 57° WNW
Lacrosse 5 rocket 4.0 01:57:33 11° E 01:57:33 11° E 01:57:53 10° E
Cosmos 1867 3.7 01:49:59 10° NW 01:55:29 70° NE 01:57:01 47° ESE
Meteor 1-12 Rocket 4.1 01:54:11 10° NNW 01:59:54 89° WSW 02:00:43 67° S
Okean 3 4.1 02:06:11 50° WNW 02:06:11 50° WNW 02:10:10 10° N
Cosmos 1833 Rocket 4.0 02:05:38 25° ESE 02:06:05 25° ESE 02:10:35 10° NE
CZ-4C R/B 4.1 02:07:02 10° WNW 02:12:15 32° NNW 02:18:16 10° NE
Cosmos 2369 3.6 02:07:05 10° NNW 02:12:46 87° ENE 02:13:48 62° SE
Cosmos 1455 Rocket 3.3 02:08:38 10° N 02:12:55 59° ENE 02:12:55 59° ENE
USA 32 4.1 02:07:52 10° NNW 02:13:05 63° W 02:13:25 61° WSW
Cosmos 1242 Rocket 3.6 02:09:48 10° N 02:12:36 45° NNE 02:12:36 45° NNE
Cosmos 1975 Rocket 3.2 02:14:39 69° ENE 02:14:39 69° ENE 02:18:50 10° NNE
SeaSat 1 3.5 02:19:41 33° W 02:19:41 33° W 02:23:25 10° NW
Geosat 4.0 02:14:32 10° NE 02:19:34 65° ESE 02:19:46 64° SE
Cosmos 2084 Rocket 3.9 02:20:31 54° ENE 02:20:31 54° ENE 02:23:52 10° NE
CZ-4B R/B 4.3 02:20:21 10° N 02:24:41 36° WNW 02:25:30 34° W
Cosmos 371 Rocket 4.3 02:24:40 33° ESE 02:24:47 33° ESE 02:29:08 10° NE
Meteor 2-9 Rocket 4.0 02:21:00 10° NNW 02:26:33 87° ENE 02:27:22 66° SSE
Cosmos 1666 3.9 02:23:00 10° NNW 02:25:32 35° NW 02:25:32 35° NW
SL-27 R/B 4.0 02:31:49 31° NE 02:31:49 31° NE 02:33:48 10° NNE
Meteor 2-20 Rocket 4.3 02:27:24 10° NNW 02:33:30 78° W 02:34:48 57° SSW
Meteor 1-13 Rocket 4.3 02:34:10 57° SSE 02:35:14 72° E 02:41:00 10° NNE
Cosmos 1544 Rocket 3.5 02:31:28 10° NNW 02:35:33 77° NW 02:35:33 77° NW
CZ-2D R/B 4.2 02:33:16 10° NE 02:36:45 17° E 02:39:17 13° ESE
Gblst 52 Del rocket 4.1 02:32:38 10° W 02:38:12 89° N 02:44:16 10° E
Cosmos 1689 Rocket 3.8 02:41:56 35° NNE 02:41:56 35° NNE 02:44:03 10° N
H-2A R/B 4.4 02:43:49 13° W 02:43:49 13° W 02:45:31 10° WNW
SL-24 R/B 4.4 02:41:24 10° NNE 02:46:37 64° E 02:47:09 59° SE
Cosmos 1536 Rocket 4.0 02:46:32 49° ESE 02:46:45 50° E 02:50:58 10° NNE
Cosmos 1743 4.3 02:44:28 10° NNW 02:46:54 26° WNW 02:46:54 26° WNW
Cosmos 2034 Rocket 4.0 02:46:07 49° S 02:47:55 76° E 02:54:09 10° NNE
Cosmos 1340 Rocket 3.7 02:48:57 38° E 02:48:57 38° E 02:52:36 10° NNE
MOS 1 Rocket 3.3 02:44:45 10° NNE 02:49:27 73° ESE 02:50:02 65° SSE
USA 267 3.7 02:43:22 10° ENE 02:49:48 60° NNW 02:56:12 10° W
Cosmos 1092 Rocket 4.3 02:44:17 10° N 02:50:30 63° ENE 02:53:22 33° SE
Helios 1B 4.5 02:51:14 76° W 02:51:14 76° W 02:55:30 10° NNW
PSLV R/B 3.4 02:47:35 10° NNE 02:51:55 87° ESE 02:51:55 87° ESE
Cosmos 1898 Rocket 4.3 02:51:56 10° NNW 02:57:01 50° ENE 03:00:32 19° SE
Gbstr 26 Del rocket 4.3 02:53:50 34° WSW 02:57:42 76° SSE 03:04:49 10° ENE
Cosmos 1515 4.1 02:58:23 56° E 02:58:23 56° E 03:01:59 10° NNE
Meteor 2-4 Rocket 3.5 03:00:29 59° SSW 03:01:33 85° WNW 03:06:56 10° NNE
Cosmos 1980 Rocket 2.2 02:55:55 10° NNW 03:01:34 81° ENE 03:04:09 34° SE
Cosmos 1697 Rocket 2.6 02:57:01 10° NW 03:02:39 65° WSW 03:03:37 55° SSW
Resurs 1-4 Rocket 3.6 02:59:03 10° NE 03:03:30 27° E 03:05:54 20° SE
ADEOS Rocket 4.1 02:57:11 10° N 03:03:34 40° WNW 03:06:18 27° WSW
Cosmos 2278 3.9 02:58:20 10° NW 03:03:44 47° WSW 03:04:00 47° WSW
Meteor 1-23 Rocket 4.3 03:06:55 46° SSE 03:08:37 72° E 03:14:17 10° NNE
H-2A R/B 3.8 03:06:40 10° NNE 03:10:33 32° E 03:11:39 28° SE
Mayak 1.2 03:09:04 10° NNW 03:10:49 12° NW 03:12:06 11° WNW
CZ-4B R/B 2.4 03:11:55 41° NW 03:11:55 41° NW 03:14:30 10° NNW
COSMOS 2406 4.2 03:10:14 26° W 03:12:43 39° NW 03:18:05 10° NNE
Cosmos 1464 Rocket 4.2 03:11:45 42° SW 03:13:39 58° WNW 03:19:54 10° N
Cosmos 1656 4.3 03:11:26 10° NW 03:16:38 36° WSW 03:16:39 36° WSW
SL-16 R/B 3.2 03:12:46 10° NNW 03:18:16 46° NE 03:23:42 10° SE
UNK 4.1 03:17:48 34° SE 03:19:40 61° ENE 03:24:14 10° N
Cosmos 2082 Rocket 2.2 03:18:23 48° S 03:19:57 74° ESE 03:25:37 10° NNE
Cosmos 1356 4.0 03:20:39 53° E 03:20:39 53° E 03:23:55 10° NNE
COSMOS 2487 3.6 03:22:38 34° ESE 03:22:38 34° ESE 03:25:50 10° NE
ARIANE 5 R/B 4.2 03:19:35 10° NE 03:23:58 26° E 03:27:14 15° SE
Cosmos 1544 4.0 03:20:56 10° N 03:24:29 44° ENE 03:25:25 35° ESE
ATLAS CENTAUR R/B 3.6 03:21:27 10° NNW 03:25:09 29° NNE 03:29:05 10° E
Nadezhda 4 Rocket 4.1 03:19:21 10° NNW 03:25:21 56° W 03:27:11 42° SW
Landsat 5 4.2 03:25:39 41° W 03:25:39 41° W 03:29:51 10° NNW
BREEZE-M R/B 4.0 03:21:33 23° WSW 03:25:34 80° S 03:31:58 10° E
ATLAS 3B R/B 4.3 03:24:57 15° SSE 03:28:46 23° ESE 03:34:01 10° ENE
SL-16 R/B 2.6 03:24:53 25° SSE 03:28:50 83° ENE 03:35:09 10° NNW
Cosmos 44 3.5 03:24:04 10° NW 03:29:15 82° NE 03:34:38 10° SE
Lacrosse 4 Rocket 3.0 03:26:49 10° NW 03:29:07 23° WNW 03:29:07 23° WNW
Cosmos 2228 4.5 03:26:52 10° N 03:30:48 34° ENE 03:33:56 14° SE
NPP 3.9 03:25:43 10° NNE 03:31:05 61° ESE 03:33:15 35° SSE
Cosmos 2322 Rocket 2.9 03:26:19 10° NNW 03:31:52 53° NE 03:37:22 10° SE
Lacrosse 5 rocket 1.2 03:33:12 68° SSW 03:33:39 79° SSE 03:37:46 10° ENE
SL-08 R/B 3.3 03:36:44 39° SSE 03:38:35 87° WSW 03:43:32 10° NNW
Cosmos 2150 Rocket 4.5 03:38:47 10° NNW 03:44:16 65° ENE 03:49:41 10° SE
Cosmos 2058 Rocket 4.1 03:40:01 10° N 03:44:16 44° ENE 03:47:49 14° SE
Cosmos 1606 Rocket 3.7 03:40:45 10° N 03:45:05 71° ENE 03:46:57 33° SSE
Cosmos 1634 Rocket 4.0 03:42:37 33° S 03:45:40 85° E 03:52:00 10° N
Okean 1-7 Rocket 4.1 03:44:23 34° SSE 03:46:08 57° E 03:50:35 10° NNE
Meteor 1-22 Rocket 4.5 03:43:14 10° N 03:49:15 73° ENE 03:53:54 16° SSE
Cosmos 1833 Rocket 2.8 03:47:19 37° SW 03:49:33 67° WNW 03:55:12 10° NNE
SJ 16-02 3.3 03:47:25 10° N 03:51:20 29° NE 03:55:13 10° ESE
AQUA 3.9 03:46:52 10° NNE 03:51:40 73° ESE 03:53:36 36° S
Cosmos 2298 Rocket 4.1 03:47:15 10° NNW 03:52:37 80° ENE 03:57:55 10° SSE
Cosmos 1356 Rocket 3.6 03:53:48 39° SSE 03:55:07 62° E 03:59:11 10° NNE
Cosmos 2279 Rocket 4.3 03:51:30 22° S 03:55:35 64° E 04:01:47 10° NNE
IRS-1D 4.0 03:51:00 10° NNE 03:56:08 58° ESE 03:59:07 25° S
Cosmos 1025 Rocket 2.9 03:55:23 49° SSW 03:56:27 73° W 04:00:46 10° N
Cosmos 2026 Rocket 4.0 03:51:36 10° NNW 03:57:58 71° W 04:01:39 27° S
Okean 2 3.6 04:00:41 45° WSW 04:01:31 53° WNW 04:05:34 10° N
SAR-Lupe-2 3.6 04:00:53 37° SSE 04:02:13 79° ENE 04:05:49 10° NNW
CZ-4C R/B 4.5 03:57:02 10° NW 04:02:37 31° NNE 04:08:59 10° ENE
Cosmos 1932 4.5 04:00:37 31° SW 04:03:56 82° NW 04:10:21 10° NE
Cosmos 1607 4.3 04:00:37 26° WSW 04:04:19 62° NW 04:10:48 10° NE
Cosmos 1892 Rocket 4.2 04:02:39 24° SSE 04:05:02 53° E 04:09:19 10° NNE
Cosmos 371 Rocket 4.1 04:03:19 29° WSW 04:05:08 40° WNW 04:09:44 10° NNE
PSLV R/B 3.8 04:07:01 39° S 04:08:23 67° WSW 04:12:27 10° NNW
Cosmos 44 Rocket 3.3 04:05:03 10° NW 04:10:10 74° SW 04:15:20 10° SSE
Helios 1A Rocket 4.1 04:08:12 10° NNE 04:12:09 39° E 04:14:57 17° SSE
NOSS 2-1 (C) 4.5 04:10:39 10° NW 04:16:16 76° SW 04:24:02 10° SE
NOSS 2-1 (D) 4.5 04:11:39 10° NW 04:17:17 74° SW 04:25:02 10° SE
CZ-2D R/B 2.1 04:12:07 10° NNE 04:17:33 85° WNW 04:20:36 27° SSW
Cosmos 1763 Rocket 3.9 04:15:59 23° S 04:19:15 60° ESE 04:24:31 10° NNE
ADEOS II 3.7 04:18:33 10° NNE 04:23:12 31° E 04:27:50 10° SSE
Cosmos 1340 Rocket 4.3 04:24:33 21° W 04:25:31 23° WNW 04:28:43 10° NNW
Cosmos 1842 3.7 04:25:39 21° S 04:28:10 60° E 04:32:06 10° NNE
CZ-2D R/B 4.3 04:25:44 10° NNE 04:29:42 46° E 04:33:05 14° S
Gblst 52 Del rocket 4.3 04:24:15 10° WNW 04:29:50 58° SSW 04:36:07 10° SE
BREEZE-M R/B 4.0 04:30:34 23° S 04:31:46 28° SE 04:36:19 10° E
IRS-1C 4.2 04:26:44 10° N 04:32:03 67° WNW 04:35:19 24° SSW
USA 267 3.9 04:26:01 10° E 04:32:24 58° N 04:38:48 10° WNW
Cosmos 304 Rocket 4.1 04:30:13 27° SW 04:32:39 55° WNW 04:37:24 10° NNE
CBERS-1 4.4 04:28:05 10° N 04:33:02 50° WNW 04:35:47 25° SW
Iridium 4 Rocket 4.0 04:32:08 26° WSW 04:33:42 33° WNW 04:38:00 10° NNW
Cosmos 2266 Rocket 4.0 04:27:52 10° N 04:33:59 81° E 04:40:09 10° SSE
Cosmos 1066 Rocket 4.4 04:33:43 25° SW 04:36:45 53° WNW 04:42:03 10° N
Cosmos 1805 3.2 04:33:48 10° NNW 04:37:41 65° W 04:40:11 21° S
USA 238 DEB 4.0 04:33:05 19° SSW 04:38:01 61° SE 04:44:54 10° NE
USA 238 4.0 04:33:11 19° SSW 04:38:08 60° SE 04:45:00 10° NE
Cosmos 1898 Rocket 4.4 04:34:25 10° NW 04:38:53 29° W 04:40:45 23° SW
Timation 2 Rocket 4.0 04:37:11 19° SSW 04:41:34 72° ESE 04:47:32 10° NE
Cosmos 2360 Rocket 2.4 04:37:24 10° NNW 04:43:04 76° ENE 04:48:42 10° SE
Resurs 1-4 Rocket 2.4 04:38:31 10° N 04:43:39 53° WNW 04:47:00 21° SW
Cosmos 1937 Rocket 4.1 04:40:08 10° NW 04:44:49 35° WSW 04:47:50 19° SSW
Cosmos 1980 Rocket 3.5 04:40:57 10° NW 04:44:55 20° W 04:45:52 19° WSW
Gbstr 26 Del rocket 4.3 04:37:28 10° W 04:45:18 87° N 04:51:51 10° E
H-2A R/B 3.5 04:42:13 10° N 04:46:04 34° WNW 04:48:15 21° WSW
Cosmos 1655 Rocket 4.4 04:42:52 10° NNW 04:48:54 47° W 04:54:00 15° SSW
MOZ.5/SAFIR/RUBIN 5/SL-8 4.5 04:46:35 22° SSW 04:49:02 36° W 04:53:27 10° NNW
Cosmos 1766 4.0 04:45:32 10° NNW 04:49:04 34° W 04:50:37 24° SW
Cosmos 1125 Rocket 3.6 04:46:41 10° NNW 04:52:03 83° ENE 04:57:22 10° SSE
Cosmos 1726 Rocket 4.4 04:49:35 10° NNW 04:53:23 31° W 04:55:21 21° SW
Cosmos 1953 2.4 04:51:38 10° N 04:55:44 84° E 04:59:48 10° SSE
COSMOS 2487 4.1 04:56:23 17° W 04:58:00 23° NW 05:00:52 10° N
Aureole 2 Rocket 2.5 04:54:18 10° NNW 04:58:10 84° WSW 05:01:47 10° SSE
Cosmos 292 Rocket 4.0 04:54:36 14° SSW 04:58:41 71° ESE 05:03:29 10° NNE
Cosmos 1733 3.1 04:58:14 10° NNW 05:02:07 76° W 05:05:59 10° S
SL-16 R/B 2.7 04:57:05 10° NW 05:02:19 39° WSW 05:07:32 10° S
Cosmos 372 Rocket 3.9 04:57:46 10° NNW 05:03:01 78° WSW 05:08:12 10° SSE
ARIANE 5 R/B 2.8 04:58:17 10° N 05:03:25 56° WNW 05:07:34 15° SW
ATLAS CENTAUR R/B 1.5 05:00:10 10° NW 05:04:29 69° SW 05:09:05 10° SSE
Cosmos 2082 Rocket 3.6 05:00:13 12° W 05:04:37 28° NW 05:09:30 10° NNE
Cosmos 724 4.4 05:01:25 17° SW 05:05:55 71° NW 05:11:46 10° NE
Cosmos 2333 Rocket 3.8 05:00:51 10° NNW 05:06:09 39° NE 05:11:27 10° ESE
NOSS 3-3 (A) 4.5 05:00:09 10° NW 05:07:26 66° SW 05:15:22 10° SSE
NOSS 3-3 (C) 4.5 05:00:15 10° NW 05:07:33 66° SW 05:15:29 10° SSE
Cosmos 2219 Rocket 3.6 05:02:50 10° NNW 05:08:13 43° NE 05:13:31 10° ESE
Cosmos 2228 4.0 05:04:37 10° NNW 05:08:17 28° W 05:10:45 16° SW
Meteor 1-21 4.3 05:05:21 13° SSW 05:10:23 65° WNW 05:15:58 10° N
Spot 4 Rocket 4.5 05:05:31 10° N 05:10:29 48° WNW 05:14:38 14° SW
COSMOS 2428 3.4 05:05:51 10° NNW 05:11:32 59° NE 05:17:08 10° SE
ERBS 4.4 05:09:37 10° S 05:12:05 19° SE 05:14:34 10° E
Cosmos 1812 Rocket 3.5 05:08:19 10° NNW 05:12:49 82° W 05:17:17 10° S
Lacrosse 5 rocket 2.3 05:09:05 10° W 05:13:07 42° NNW 05:16:56 10° ENE
SL-16 R/B 3.8 05:09:58 15° SW 05:13:12 21° W 05:17:53 10° NW
Cosmos 1814 Rocket 4.2 05:10:09 15° SW 05:14:16 57° WNW 05:19:27 10° NNE
Cosmos 2237 Rocket 4.4 05:09:34 10° NNW 05:14:32 30° NE 05:19:31 10° ESE
NOSS 3-2 (C) 4.3 05:09:29 10° SSW 05:15:13 47° ESE 05:21:34 10° NE
Cosmos 2322 Rocket 2.9 05:10:44 10° NW 05:15:42 33° WSW 05:20:38 10° SSW
ATLAS 3B R/B 2.8 05:12:12 13° SW 05:18:41 85° SE 05:25:34 10° NE
Cosmos 2058 Rocket 4.3 05:18:30 10° NW 05:22:02 24° W 05:25:03 12° SW
Cosmos 1602 Rocket 3.5 05:18:10 10° SSW 05:22:30 80° W 05:26:51 10° N
Cosmos 1758 3.9 05:20:29 10° NNW 05:24:10 37° W 05:27:51 10° SSW
Meteor 1-16 Rocket 4.5 05:18:40 10° N 05:24:22 74° ENE 05:29:51 10° SSE
SJ 16-02 1.8 05:25:54 10° NW 05:30:02 40° WSW 05:34:09 10° S
NOSS 3-2 (A) 3.7 05:24:02 10° SSW 05:30:02 73° SE 05:36:48 10° NE
Cosmos 1626 Rocket 3.7 05:29:31 10° SSW 05:33:46 56° WNW 05:38:04 10° N
CENTAUR R/B 4.0 05:31:21 10° S 05:36:42 33° ESE 05:42:44 10° NE
Cosmos 1378 3.1 05:33:16 10° SSW 05:37:00 69° WNW 05:40:47 10° N
USA 215 4.4 05:31:12 10° ENE 05:37:07 35° SE 05:43:02 10° SSW
Cosmos 841 Rocket 3.9 05:32:28 10° SW 05:37:25 50° WNW 05:42:32 10° NNE
UNKNOWN OBJECT B 3.6 05:35:35 10° N 05:39:06 34° WNW 05:42:32 10° SW
Cosmos 540 Rocket 3.5 05:37:20 10° SSW 05:42:28 72° WNW 05:47:39 10° NNE
Cosmos 1470 3.4 05:39:24 10° NNW 05:43:05 36° W 05:46:45 10° SSW
Helios 1A Rocket 4.2 05:43:42 10° N 05:47:13 27° WNW 05:50:44 10° WSW
CZ-4C R/B 3.6 05:45:52 10° NW 05:52:31 57° NE 06:00:08 10° ESE
Cosmos 1553 Rocket 4.3 05:52:29 10° S 05:58:53 78° E 06:05:18 10° NNE
